Kodiak, AK

7:38 AM AKDT on September 23, 2017 (GMT -0800)
Kodiak

Weather History for PADQ - August, 2013

Change the Weather History Date:

Monday, August 26, 2013

  Actual Average Record
Temperature  
Mean Temperature 55 °F 54 °F  
Max Temperature 57 °F 61 °F 77 °F (1990)
Min Temperature 52 °F 48 °F 38 °F (1998)
Degree Days  
Heating Degree Days 10 11  
Month to date heating degree days 227 248  
Since 1 June heating degree days 769 1036  
Since 1 July heating degree days 438 575  
Cooling Degree Days 0 0  
Month to date cooling degree days 0 0  
Year to date cooling degree days 6 1  
Since 1 June cooling degree days 6 1  
Growing Degree Days 4 (Base 50)    
Moisture  
Dew Point 48 °F    
Average Humidity 0    
Maximum Humidity 0    
Minimum Humidity 0    
Precipitation  
Precipitation 0.00 in 0.16 in 1.91 in (1917)
Month to date precipitation 6.71 3.71  
Year to date precipitation 37.32 45.94  
Snow  
Snow 0.00 in 0.00 in - ()
Month to date snowfall 0.0 0.0  
Since 1 June snowfall 0.0 0.0  
Since 1 July snowfall 0.0 0.0  
Snow Depth 0.00 in    
Sea Level Pressure  
Sea Level Pressure 29.74 in    
Wind  
Wind Speed 4 mph (ESE)    
Max Wind Speed 15 mph    
Max Gust Speed 17 mph    
Visibility 10 miles    
Events      
T = Trace of Precipitation, MM = Missing Value Source: NWS Daily Summary

Daily Weather History Graph

Daily Weather History Graph

Search for Another Location

Airport or City:

Trip Planner

Search our weather history database for the weather conditions in past years. The results will help you decide how hot, cold, wet, or windy it might be!

Date:

Astronomy

Aug. 26, 2013 Rise Set
Actual Time 6:58 AM AKDT 9:23 PM AKDT
Civil Twilight 6:15 AM AKDT 10:05 PM AKDT
Nautical Twilight 5:19 AM AKDT 11:01 PM AKDT
Astronomical Twilight 4:07 AM AKDT 12:11 AM AKDT
Moon 11:09 PM AKDT (8/26) 2:39 PM AKDT (8/26)
Length of Visible Light 15h 50m
Length of Day
14h 24m
Waning Gibbous, 65% of the Moon is Illuminated
Aug 26
Waning Gibbous
Aug 28
Last Quarter
Sep 5
New
Sep 12
First Quarter
Sep 19
Full

Hourly Weather History & Observations

Time (AKDT) Temp. Dew Point Humidity Pressure Visibility Wind Dir Wind Speed Gust Speed Precip Events Conditions
12:53 AM 57.0 °F 48.0 °F 72% 29.74 in 10.0 mi NW 11.5 mph - N/A   Overcast
1:53 AM 57.0 °F 46.9 °F 69% 29.75 in 10.0 mi WNW 9.2 mph - N/A   Overcast
2:53 AM 55.9 °F 46.9 °F 72% 29.75 in 10.0 mi WNW 10.4 mph - N/A   Overcast
3:53 AM 55.9 °F 46.9 °F 72% 29.75 in 10.0 mi West 9.2 mph - N/A   Overcast
4:53 AM 55.9 °F 46.9 °F 72% 29.75 in 10.0 mi WNW 8.1 mph - N/A   Overcast
5:53 AM 55.0 °F 48.0 °F 77% 29.75 in 10.0 mi WNW 5.8 mph - N/A   Overcast
6:53 AM 53.1 °F 48.0 °F 83% 29.75 in 10.0 mi SE 5.8 mph - N/A   Overcast
7:53 AM 52.0 °F 48.9 °F 89% 29.75 in 10.0 mi Calm Calm - N/A   Overcast
8:27 AM 53.6 °F 48.2 °F 82% 29.75 in 10.0 mi Calm Calm - N/A   Overcast
8:53 AM 54.0 °F 48.9 °F 83% 29.75 in 10.0 mi Calm Calm - N/A   Overcast
9:53 AM 55.0 °F 50.0 °F 83% 29.75 in 10.0 mi Calm Calm - N/A   Overcast
10:53 AM 54.0 °F 48.9 °F 83% 29.75 in 10.0 mi East 3.5 mph - N/A   Overcast
11:53 AM 54.0 °F 48.9 °F 83% 29.74 in 10.0 mi Calm Calm - N/A   Overcast
12:53 PM 55.0 °F 48.9 °F 80% 29.74 in 10.0 mi Calm Calm - N/A   Overcast
1:53 PM 55.9 °F 48.9 °F 77% 29.73 in 10.0 mi East 4.6 mph - N/A   Overcast
2:53 PM 55.9 °F 48.9 °F 77% 29.73 in 10.0 mi East 6.9 mph - N/A   Overcast
3:53 PM 55.0 °F 48.9 °F 80% 29.74 in 10.0 mi ESE 3.5 mph - N/A   Overcast
4:53 PM 55.0 °F 48.9 °F 80% 29.73 in 10.0 mi ESE 5.8 mph - N/A   Overcast
5:53 PM 55.9 °F 48.0 °F 75% 29.73 in 10.0 mi East 4.6 mph - N/A   Overcast
6:53 PM 54.0 °F 50.0 °F 86% 29.73 in 10.0 mi ESE 3.5 mph - N/A   Overcast
7:53 PM 55.0 °F 48.9 °F 80% 29.73 in 10.0 mi Calm Calm - N/A   Overcast
8:53 PM 55.0 °F 48.9 °F 80% 29.73 in 10.0 mi Calm Calm - N/A   Overcast
9:21 PM 55.4 °F 48.2 °F 77% 29.74 in 10.0 mi Calm Calm - N/A   Overcast
9:53 PM 55.0 °F 48.0 °F 77% 29.75 in 10.0 mi SSW 3.5 mph - N/A   Overcast
10:53 PM 55.0 °F 48.9 °F 80% 29.75 in 10.0 mi Calm Calm - N/A   Overcast
11:53 PM 54.0 °F 48.9 °F 83% 29.76 in 10.0 mi Calm Calm - N/A   Overcast